Location: ?p Thanh B�nh
(16.5833°N, 107.5333°E)
Time: 05:36:35
(UTC+00:00)

Cosmos 2292 Rocket - Pass Details

Date: 29 October 2020
Orbit: 381 x 1451 km, 83.0° (Epoch: 29 November)

Event Time Altitude Azimuth Distance (km) Brightness Sun altitude
Rises 22:17:59 0° 188° (S) 2,267 6.5 -7.6°
Reaches altitude 10° 22:19:57 10° 191° (SSW) 1,393 5.4 -7.1°
Maximum altitude 22:22:50 66° 274° (W) 424 2.5 -6.4°
Drops below altitude 10° 22:25:55 10° 358° (N) 1,479 5.4 -5.7°
Sets 22:28:03 0° 1° (N) 2,427 6.5 -5.2°
